Showing default

FLOCK 4G 29, 62642

Orbit data source: Space-Track

FLOCK 4G 29, 62642 is a payload satellite owned by Planet (US) in SSO that was launched on Tue, 14 Jan 2025 UTC via an FALCON 9 launch vehicle from the Air Force Western Test Range (AFWTR). Payload-class satellites include a variety of spacecraft equipped with specific instruments for various scientific and technological missions. These include communications satellites like Starlink; space stations such as the ISS; scientific satellites like the Hubble; Earth observation satellites from companies like Planet Labs, Umbra, and HawkEye 360; GPS; miniature CubeSats for education and research; and military/defense satellites.

Loading next visibility...
Identifier
62642, 2025-009AK
Orbit
SSO
Country
Flag of USUS
Related business
Manufacturer
Planet
Mission
Operational Commercial Imaging
Bus & Motor
CUBESAT 3U, Unknown motor
Mass
5.7 kg wet, 5.7 kg dry
Launch date (UTC)
2025-01-14 (10 months ago)
Launch vehicle
FALCON 9
Launch site
Air Force Western Test Range (AFWTR)
Object type
Payload
Rocket body
Debris
Shape & HBR
Box + 2 Pan, 1.0 m
Radar Cross Section
0.072 m², Medium (>0.1 m² and < 1m²)

Expand to show TLE details & history
Last TLE update: 18 hours ago

TLE from 18 hours ago
0 FLOCK 4G 29
1 62642U 25009AK  25308.66775684  .00011963  00000-0  49974-3 0  9999
2 62642  97.4238  27.2953 0003142  33.5044 326.6391 15.23774512 44647
Epoch: 2025-11-04T16:01Z
TLE epoch observation values (Epoch: 2025-11-04T16:01:34.190Z)
Latitude
-0.00009°
Longitude
102.75137°
Altitude
495.759 km
Speed
7.618 km/s
True Right ascension
01h 49m 10s
True Declination
0° 00' 00"
Sunlit
Object was in full shadow at epoch
Visualization orbit readout
Latitude
Unknown
Longitude
Unknown
Altitude
Unknown
Speed
Unknown
Apparent Right ascension
Unknown
Apparent Declination
Unknown
Sunlit
N/A
Visualization observer readout
Local Sidereal Time
06:01:02
Azimuth
Unknown
Elevation
Unknown
Doppler factor
Unknown
Orbital elements
Apogee altitude
493.588 km
Perigee altitude
489.271 km
Semi-major axis
6,869.566 km
Eccentricity
0.00031
Inclination
97.4238°
RAAN
27.2953°
Arg. of periapsis
33.5044°
True anomaly
326.61929°
Mean anomaly
326.6391°
Eccentric anomaly
326.6292°
Mean motion
3.81197 °/min
Orbital period
94.44 mins
BSTAR
0.00049974
Loading maneuver chart data...
Computing Atmospheric mass density...
Loading historical data...
Loading historical data...
Loading historical data...
Loading historical data...
Loading historical data...
Loading historical data...
Loading historical data...

Documentation

Showing up to 5 results
|